Fort Wayne Police Department
Fort Wayne Police Department
Emergencies Call: 911
Non-Emergencies: (260) 427-1222
report drug house

Daily Activity Logs

Activity Log for October 9, 2013 Community Search

Incident Time Nature Address
13F147624 00:02:30 63 CONTACT 600 COLUMBIA AVE
13F147625 00:05:37 30 TRAFFIC STOP 1400 AIRPORT EXPRESSWAY
13F147626 00:05:41 101 OPEN DOOR 8500 SUMMERSET PL
13F147627 00:06:00 40A AUDIBLE 6700 MAPLECREST RD
13F147628 00:18:05 25 PD ACCIDENT 1000 PONTIAC ST E & SMITH ST
13F147629 00:25:45 48,36 100 FOSTER PKWY W & HARRISON ST S
13F147630 00:35:36 96JO 500 STATE BLVD E
13F147631 00:48:48 48 SUSPICIOUS 2400 NEW HAVEN AVE
13F147632 00:53:18 40A AUDIBLE 5400 COVENTRY LN
13F147633 00:55:38 30 TRAFFIC STOP 2700 LAKE AVE & BEACON ST
13F147635 01:01:51 43 DISTURBANCE 300 STATE BLVD W & WELLS ST
13F147634 01:02:17 30 TRAFFIC STOP 1200 GETZ RD & ILLINOIS RD
13F147636 01:13:52 EMS 3100 WEBSTER ST
13F147637 01:23:40 43 DISTURBANCE 800 LAKE AVE
13F147639 01:35:11 50 BURGLARY 4800 ARLINGTON AVE
13F147638 01:35:49 80 CIVIL INVEST 2700 COLISEUM BLVD W
13F147640 01:41:07 48,35 9300 GERIG RD
13F147641 01:44:02 96 BATTERY 1800 MAIN ST W
13F147642 01:56:43 66 MENTALLY ILL 7400 HOPE DR
13F147643 02:02:26 30 TRAFFIC STOP 6200 STATE BLVD E & MAPLECREST RD
13F147644 02:14:51 48 SUSPICIOUS 3100 STATE BLVD E & HOBSON RD
13F147645 02:34:56 16V PICKUP VID 00 MAIN ST E
13F147646 02:46:27 33,34 100 CREIGHTON AVE E & CALHOUN ST S
13F147647 03:24:44 16V PICKUP VID 00 MAIN ST E
13F147648 03:49:38 39 STOLEN VEHIC 3300 BROOKLYN AVE
13F147649 04:29:23 40A AUDIBLE 600 BERRY ST W
13F147650 04:32:53 129 900 RUDISILL BLVD W
13F147651 04:35:44 129 7400 ANTHONY BLVD S
13F147653 04:36:46 911 HANG UP 4300 BOWSER AVE
13F147652 04:38:06 1 MEET 00 MAIN ST E
13F147654 04:44:11 39R STOLEN RECO 4500 BLUFFTON RD
13F147655 04:49:52 37 PARKING VIOL 1900 ST MARYS AVE
13F147656 04:57:50 101 OPEN DOOR 5000 CLOVERBROOK DR
13F147657 05:17:55 EMS 5700 MEADOWS DR
13F147658 05:19:18 48 SUSPICIOUS 600 CALHOUN ST S & MAIN ST E
13F147659 05:26:47 103 UNWANTED 3000 GOSHEN RD
13F147660 05:53:04 911 HANG UP 3700 WASHINGTON BLVD E
13F147661 06:16:34 16V PICKUP VID 00 MAIN ST E
13F147662 06:16:51 16V PICKUP VID 00 MAIN ST E
13F147663 06:19:33 16V PICKUP VID 00 MAIN ST E
13F147664 06:21:13 20 PROBLEM UNK 4100 KIMBERWICK PL
13F147665 06:22:26 48,36 1600 FOREST VALLEY DR & FOREST GLE
13F147667 06:34:23 33,34 4200 CALHOUN ST S & MCKINNIE AVE
13F147666 06:34:25 15 ASSIST 1800 BAYVIEW DR
13F147668 06:49:58 15 ASSIST 3400 REGIS DR
13F147669 06:59:11 40A AUDIBLE 500 BRACKENRIDGE ST E
13F147670 07:10:36 30 TRAFFIC STOP 3800 JEFFERSON BLVD W & ILLINOIS R
13F147671 07:15:10 25HS HIT SKIP 2500 EADE AVE & STADIUM DR
13F147672 07:21:14 25 PD ACCIDENT 5400 HURSH RD & TONKEL RD
13F147673 07:30:16 48,36 10600 COOK RD W & FELGER RD
13F147674 07:35:28 25 PD ACCIDENT 2100 ENGLE RD & BLUFFTON RD
13F147675 07:36:12 40A AUDIBLE 3000 QUEEN ST
13F147676 07:42:17 40I INTRUSION 3200 CIERA CT
13F147677 07:43:06 40A AUDIBLE 4200 COLDWATER RD
13F147678 07:49:33 25 PD ACCIDENT 1400 PROGRESS RD
13F147679 07:54:27 26 PI ACCIDENT 10300 AUBURN RD & DUPONT RD E
13F147680 08:05:14 40A AUDIBLE 400 BERRY ST E
13F147681 08:05:23 911 HANG UP 8600 JEFFERSON BLVD W
13F147682 08:09:31 25 PD ACCIDENT 400 CLINTON ST S & SUPERIOR ST E
13F147683 08:11:19 48,36 5000 WOODHURST BLVD & SOUTHWAYNE A
13F147684 08:15:04 63 CONTACT 3000 SOUTHWAYNE AVE
13F147685 08:18:31 911 HANG UP 1600 HOBSON RD
13F147689 08:19:36 48,35 5800 FAIRFIELD AVE
13F147686 08:23:42 25HS HIT SKIP 2100 ANDREW ST
13F147700 08:25:13 102 THREATS 700 ST MARYS AVE
13F147688 08:25:23 911 HANG UP 2500 LAKE AVE
13F147687 08:25:46 39 STOLEN VEHIC 2300 POINT WEST DR
13F147691 08:27:17 911 HANG UP 4200 HOBSON RD & COLLEGE PARK BLVD
13F147690 08:29:24 27 RECKLESS DRI 200 RUDISILL BLVD E & CLINTON ST S
13F147692 08:30:35 48 SUSPICIOUS 8100 MANOR DR
13F147694 08:32:03 40A AUDIBLE 500 BRACKENRIDGE ST E
13F147693 08:32:34 22I JUV INVEST 1100 MONROE ST S
13F147696 08:34:49 911 HANG UP 4500 TILLMAN RD E & WOODLYNN DR
13F147695 08:35:24 23 VANDALISM 300 DEWALD ST W
13F147697 08:36:42 22I JUV INVEST 8100 AMHERST DR
13F147711 08:38:20 22I JUV INVEST 500 HIGH ST
13F147698 08:39:10 40H HOLDUP ALRM 1500 DUPONT RD W
13F147699 08:40:59 40A AUDIBLE 4400 REED ST
13F147710 08:48:31 17 MOTOR CHECK 900 COLISEUM BLVD W
13F147702 08:49:56 25 PD ACCIDENT 7700 MILL RUN DR
13F147704 08:52:25 25HS HIT SKIP 5800 CLINTON ST N
13F147707 08:54:24 17 MOTOR CHECK 1000 RIVER OAK RUN
13F147706 08:55:16 16V PICKUP VID 00 MAIN ST E
13F147708 08:57:38 40A AUDIBLE 1200 WAYNE ST W
13F147709 08:58:45 46,96 400 CREIGHTON AVE E
13F147712 09:06:31 14 WARRANT 7900 SERENITY DR
13F147723 09:11:31 46 DOMESTIC 4500 BOWSER AVE
13F147714 09:18:24 83 INFO REPORT 2400 OAKRIDGE RD
13F147715 09:20:47 911 HANG UP 400 HUFFMAN ST
13F147734 09:20:54 22RN RUNAWAY 500 FIFTH ST
13F147716 09:21:44 30 TRAFFIC STOP 3700 INDIANA AVE
13F147718 09:22:51 911 HANG UP 1400 CLINTON ST N
13F147717 09:23:12 34 TRAFF HAZARD 500 DOUGLAS AVE E & MONROE ST S
13F147719 09:27:22 25 PD ACCIDENT 5500 ARDMORE AVE
13F147722 09:27:24 40A AUDIBLE 5600 PLAZA DR
13F147720 09:30:14 51,35 8300 LAKESIDE DR
13F147721 09:34:09 911 HANG UP 2200 LAFAYETTE ST S & CREIGHTON AV
13F147725 09:37:58 16,97 600 CAMDEN DR N
13F147724 09:38:38 63 CONTACT 900 RUSSELL AVE
13F147726 09:45:38 65T SUICIDE THR 1000 COLISEUM BLVD N
13F147728 09:45:39 103 UNWANTED 700 COLISEUM BLVD E
13F147727 09:46:09 48,36 4500 MONROE ST S
13F147729 09:48:27 23,35 VAND VEH 2700 ANTHONY BLVD N & CURDES AVE
13F147731 09:48:58 22I JUV INVEST 4300 ANTHONY WAYNE DR SW
13F147730 09:51:14 51 THEFT 00 MAIN ST E
13F147732 09:53:38 911 HANG UP 4600 FAIRLAWN PASS
13F147748 09:59:15 50,ATTEMPTED 4400 REED ST
13F147733 09:59:44 40A AUDIBLE 1400 APPLE GLEN BLVD
13F147735 10:05:48 43 DISTURBANCE 3600 BOWSER AVE
13F147760 10:05:55 42 INTOX PERSON 2200 WAYNE TRACE E
13F147736 10:09:30 EMS 1600 MAIN ST W
13F147737 10:14:57 25 PD ACCIDENT 4800 SIRLIN DR
13F147738 10:15:48 911 HANG UP 4600 EXECUTIVE BLVD
13F147742 10:17:59 46 DOMESTIC 2700 PRISCILLA LN
13F147739 10:18:33 911 HANG UP 6600 NEWBURGH PL
13F147768 10:20:41 17 MOTOR CHECK 3200 BOWSER AVE
13F147743 10:23:06 911 HANG UP 9100 WINCHESTER RD
13F147745 10:24:57 911 HANG UP 7000 ANTEBELLUM BLVD
13F147771 10:25:05 51 THEFT 800 COLISEUM BLVD N
13F147746 10:31:40 HARASSMENT 5500 MAURANE DR
13F147747 10:32:17 911 HANG UP 500 PINEGROVE LN
13F147755 10:37:13 EMS 800 GREENLAWN AVE
13F147751 10:38:09 30 TRAFFIC STOP 1500 STATE BLVD W
13F147756 10:43:12 48 SUSPICIOUS 900 CALHOUN ST S & WASHINGTON BLVD
13F147758 10:44:43 EMS 2100 ST MARYS AVE
13F147761 10:48:36 TOW 4200 COLDWATER RD
13F147763 10:50:42 25 PD ACCIDENT 5000 INDUSTRIAL RD & LEY RD
13F147765 10:51:18 911 HANG UP 700 RIDGEWOOD DR
13F147787 11:00:00 TOW 8100 LAKESIDE CT
13F147773 11:10:02 14 WARRANT 1200 HANNA ST S & DOUGLAS AVE E
13F147775 11:12:42 51 THEFT 1400 STATE BLVD E
13F147776 11:14:40 43 DISTURBANCE 2700 COLISEUM BLVD W
13F147779 11:19:30 40A AUDIBLE 4700 FALL BROOK LN
13F147780 11:22:35 55 FIGHT 400 STATE BLVD E
13F147782 11:22:57 27 RECKLESS DRI 31000 I 69 SB
13F147783 11:24:29 1 MEET 00 MAIN ST E
13F147785 11:29:54 46,96 1700 HOBSON RD
13F147786 11:30:36 25HS HIT SKIP 100 CREIGHTON AVE W & HARRISON ST
13F147791 11:30:43 46,96 00 MAIN ST E
13F147788 11:31:01 17 MOTOR CHECK 2300 HANNA ST S
13F147789 11:32:20 911 HANG UP 1800 GRISWOLD DR
13F147790 11:34:27 EMS 1300 ILLINOIS RD S
13F147794 11:35:41 1 MEET 1200 HANNA ST S
13F147811 11:35:55 102,TX THREATS 2400 HARRISON ST S
13F147795 11:37:40 96 BATTERY 2900 ENGLE RD
13F147798 11:46:14 65T SUICIDE THR 1400 MAIN ST W
13F147799 11:48:55 20 PROBLEM UNK 1100 WILDWOOD AVE W
13F147802 11:49:45 22I JUV INVEST 2300 WEISSER PARK AVE
13F147877 11:50:37 16,97 3400 COLISEUM BLVD W
13F147800 11:51:42 15 ASSIST 600 LAWTON PL
13F147801 11:53:05 43 DISTURBANCE 9100 WINCHESTER RD
13F147803 11:53:38 35 PARKED VEHIC 100 LEXINGTON CT
13F147805 11:59:22 48 SUSPICIOUS 4100 ROSEVIEW RD
13F147806 12:06:54 911 HANG UP 2100 HOBSON RD
13F147807 12:09:44 911 HANG UP 3900 VANCE AVE & COLISEUM BLVD E
13F147809 12:13:13 102 THREATS 300 LEXINGTON CT & CLINTON ST S
13F147808 12:14:06 40A AUDIBLE 7800 TANBARK LN
13F147812 12:14:49 51 THEFT 00 MAIN ST E
13F147810 12:15:38 99 NARCOTICS 200 WAYNE ST W
13F147876 12:19:00 51 THEFT 1100 STATE BLVD W
13F147819 12:19:59 48,35 4200 COLDWATER RD
13F147813 12:20:19 50 BURGLARY 400 FRENCH AVE
13F147814 12:23:16 30 TRAFFIC STOP 1000 BROADWAY & JEFFERSON BLVD W
13F147815 12:24:17 51 THEFT 5000 BLUFFTON RD
13F147816 12:24:56 51 THEFT 2200 JULIETTE AVE
13F147817 12:26:11 43 DISTURBANCE 6000 BUNT DR
13F147818 12:27:42 38 LOST/STOLEN 3500 OLIVER ST
13F147867 12:29:02 50,ATTEMPTED 1100 HAMILTON AVE
13F147820 12:29:25 40A AUDIBLE 6300 SOUTHAMPTON CT
13F147821 12:29:58 48,36 6400 HESSEN CASSEL RD & ELMDALE DR
13F147822 12:33:09 911 HANG UP 100 WASHINGTON CENTER RD W
13F147823 12:34:25 30 TRAFFIC STOP 100 PONTIAC ST E & CALHOUN ST S
13F147824 12:35:26 63 CONTACT 1900 BROWN ST
13F147826 12:37:29 911 HANG UP 1200 LEWIS ST E
13F147825 12:37:41 66 72 HOUR 2200 RANDALLIA DR
13F147827 12:38:47 25 PD ACCIDENT 1200 LEWIS ST E & OHIO ST
13F147828 12:43:40 911 HANG UP 9100 WINCHESTER RD
13F147829 12:46:07 50 BURGLARY 600 CREIGHTON AVE W
13F147831 12:48:57 26 PI ACCIDENT 6200 STELLHORN RD & MAPLECREST RD
13F147830 12:49:00 51 THEFT 7300 LISMORE LN
13F147833 12:52:18 911 HANG UP 3600 WASHINGTON BLVD E
13F147832 12:52:55 25 PD ACCIDENT 1800 HAZELWOOD AVE
13F147926 12:56:11 17 MOTOR CHECK 2900 CHESTNUT ST
13F147834 12:59:55 65T SUICIDE THR 2800 RIDGE VALLEY DR
13F147835 13:02:35 911 HANG UP 2400 LILLIE ST
13F147836 13:07:57 99 NARCOTICS 1200 BARR ST S
13F147879 13:08:15 47 REMOVE ITEMS 1700 BAYVIEW DR
13F147837 13:09:50 17 MOTOR CHECK 800 AVENUE OF AUTOS
13F147868 13:14:05 61 RAPE 4400 CASA VERDE DR
13F147838 13:16:57 39JO 4400 WINTER ST
13F147866 13:18:59 11C CAGE CAR 1200 BARR ST S
13F147839 13:27:36 25HS HIT SKIP 100 WAYNE ST W & HARRISON ST S
13F147870 13:30:25 51 THEFT 5400 NORTHCREST DR
13F147840 13:30:58 108 FOLLOWUP 4700 WONDERBOY WAY
13F147871 13:31:08 11C CAGE CAR 1700 APPLE GLEN BLVD
13F147845 13:31:53 911 HANG UP 5000 NEVADA AVE
13F147843 13:34:42 51 THEFT 1300 BARTHOLD ST
13F147844 13:35:57 39R STOLEN RECO 4400 WINTER ST
13F147846 13:36:36 40P PANIC ALARM 2400 AMERICAN WAY
13F147851 13:42:07 43 DISTURBANCE 2100 HUFFMAN BLVD
13F147859 13:44:06 1 MEET 2000 HOBSON RD
13F147854 13:44:33 911 HANG UP 4100 MONROE ST S
13F147856 13:50:20 99 NARCOTICS 400 STATE BLVD E
13F147860 13:54:11 51 THEFT 5800 WEYBRIDGE PL
13F147864 13:58:06 40A AUDIBLE 1500 LEESBURG RD
13F147862 13:58:11 108 FOLLOWUP 900 COLUMBIA AVE
13F147865 13:58:48 25HS HIT SKIP 2800 STATE BLVD E
13F147869 14:00:49 43 DISTURBANCE 6300 BLUFFTON RD
13F147872 14:02:00 43 DISTURBANCE 200 MASTERSON AVE E
13F147878 14:04:33 25 PD ACCIDENT 1700 APPLE GLEN BLVD
13F147888 14:05:03 14 WARRANT 700 BUCHANAN ST
13F147884 14:05:28 47 REMOVE ITEMS 1000 COLISEUM BLVD W
13F147874 14:06:37 63Z ZACH CHECK 3800 SLEEPY HOLLOW LN
13F147882 14:14:14 51,35 700 BROADWAY
13F147883 14:14:21 911 HANG UP 3200 BROOKLYN AVE
13F147885 14:16:09 11C CAGE CAR 00 MAIN ST E
13F147889 14:20:24 51,35 1800 COLISEUM BLVD W
13F147890 14:26:08 51 THEFT 7900 JEFFERSON BLVD W
13F147891 14:26:24 101 OPEN DOOR 2500 CLE ELUM DR
13F147893 14:32:06 15 ASSIST 4400 GOSHEN RD & MERCHANT RD
13F147896 14:34:38 22RN RUNAWAY 5900 FAIRFIELD AVE
13F147911 14:36:09 17 MOTOR CHECK 1300 SPRINGBROOK RD
13F147906 14:36:57 27 RECKLESS DRI 7300 LIMA RD & COOK RD W
13F147899 14:37:02 911 HANG UP 3100 GOSHEN RD & I 69 309 NB ON RA
13F147898 14:38:01 25 PD ACCIDENT 1900 GOSHEN RD & HARRIS RD
13F147897 14:38:23 25 PD ACCIDENT 1200 PUTNAM ST & JESSIE AVE
13F147901 14:40:49 911 HANG UP 200 RUDISILL BLVD E
13F147902 14:41:50 25 PD ACCIDENT 4500 WINTER ST
13F147905 14:43:15 48 SUSPICIOUS 100 SEMINOLE CIR S
13F147903 14:43:45 51 THEFT 5300 MERCHANDISE DR
13F147904 14:43:51 33,34 8700 ABOITE CENTER RD & COVENTRY L
13F147910 14:48:27 25 PD ACCIDENT 4700 WASHINGTON BLVD E & MEYER RD
13F147916 14:51:17 17 MOTOR CHECK 4500 WOODLYNN CT
13F147913 14:54:48 16 PICK UP ITEM 4400 WASHINGTON CENTER RD W
13F147917 14:59:23 30 TRAFFIC STOP 1200 JEFFERSON BLVD W
13F147918 14:59:31 23,35 VAND VEH 400 HUFFMAN ST
13F147920 14:59:41 911 HANG UP 8600 NORTHRIVER RD
13F147919 14:59:48 51,ATTEMPTED 6900 WOLFSBORO LN
13F147935 15:02:28 22I JUV INVEST 2700 MILLBROOK DR
13F147939 15:02:54 17 MOTOR CHECK 1900 HARRISON ST S
13F147924 15:03:38 911 HANG UP 4800 LAHMEYER RD
13F147921 15:04:22 30 TRAFFIC STOP 600 OSAGE ST & BOONE ST
13F147922 15:04:27 16,97 4300 ANTHONY BLVD S
13F147925 15:04:43 911 HANG UP 4900 MIDLOTHIAN DR
13F147923 15:04:53 63Z ZACH CHECK 11700 EAGLE LAKE CT
13F147943 15:05:57 50,ATTEMPTED 1100 HAMILTON AVE
13F147934 15:06:30 102 THREATS 3700 CENTRAL DR
13F147927 15:07:59 65T SUICIDE THR 5000 RIDGEDALE DR
13F147928 15:08:33 25 PD ACCIDENT 3800 LAFAYETTE ST S
13F147931 15:11:43 911 HANG UP 3900 PARNELL AVE
13F147929 15:11:46 16V PICKUP VID 00 MAIN ST E
13F147930 15:15:08 30 TRAFFIC STOP 600 BUCHANAN ST & HANNA ST S
13F147932 15:21:42 33,34 5100 COLDWATER RD
13F147933 15:21:58 911 HANG UP 1900 TURNBERRY LN
13F147936 15:27:02 11 PICK UP PRIS 300 DUPONT RD E
13F147937 15:30:21 911 HANG UP 4000 CALHOUN ST S
13F147940 15:30:29 108 FOLLOWUP 700 ST MARYS AVE
13F147938 15:33:12 911 HANG UP 2800 CALHOUN ST S
13F147951 15:35:29 22I JUV INVEST 2200 MAPLECREST RD
13F147941 15:41:27 911 HANG UP 700 THIRD ST
13F147942 15:45:22 108 FOLLOWUP 00 MAIN ST E
13F147944 15:46:54 25 PD ACCIDENT 3900 STATE BLVD E & COLISEUM BLVD
13F147945 15:51:17 911 HANG UP 3700 WASHINGTON BLVD E
13F147977 15:55:11 24 MISSING PERS 2400 NORTHHIGHLANDS BLVD
13F147946 15:56:09 34 TRAFF HAZARD 5700 COVENTRY LN
13F147948 15:59:02 51 THEFT 00 MAIN ST E
13F147953 16:02:40 911 HANG UP 5400 DISTRIBUTION DR
13F147950 16:02:50 48 SUSPICIOUS 2000 CAPITOL AVE & PLAZA DR
13F147949 16:03:26 33,34 10900 US 27 S & I 469 NB
13F147952 16:05:05 911 HANG UP 3600 CALHOUN ST S
13F147956 16:05:38 33,34 600 RUDISILL BLVD E & HANNA ST S
13F147954 16:06:37 911 HANG UP 1500 FOURTH ST W
13F147978 16:10:04 56 MOLESTING 800 HUFFMAN ST
13F147958 16:12:01 25HS HIT SKIP 100 CREIGHTON AVE W
13F147971 16:13:24 22N CHILD NEGLE 7600 GRANADA DR
13F147959 16:13:55 25 PD ACCIDENT 600 WAYNE ST E & HANNA ST S
13F147965 16:19:15 63 CONTACT 5700 LIBERTY CT
13F147969 16:23:03 25 PD ACCIDENT 3700 ILLINOIS RD & HILLEGAS RD S
13F147970 16:23:57 46 DOMESTIC 2400 NEW HAVEN AVE
13F147968 16:25:15 911 HANG UP 7900 GATHINGS DR
13F147972 16:35:29 46 DOMESTIC 100 WILDWOOD AVE W
13F147973 16:39:20 911 HANG UP 2900 ABBOTT ST
13F147974 16:41:17 33,34 30700 I 69 NB
13F147975 16:43:40 80 CIVIL INVEST 7600 GRANADA DR
13F147976 16:44:12 40A AUDIBLE 4200 BOWSER AVE
13F147979 16:47:12 50JO 1000 JACKSON ST
13F147980 16:51:02 63 CONTACT 1900 GLADSTONE DR
13F147981 16:51:44 911 HANG UP 3000 PONTIAC ST E
13F147983 16:52:12 25 PD ACCIDENT 500 MAPLECREST RD & LAKE AVE
13F147982 16:54:41 30 TRAFFIC STOP 3100 PAULDING RD E & HESSEN CASSEL
13F147994 16:55:22 102 THREATS 00 MAIN ST E
13F147985 16:55:40 43 DISTURBANCE 2600 COVINGTON COMMONS DR
13F147984 16:56:11 30 TRAFFIC STOP 31800 I 69 SB
13F147986 17:00:28 27 RECKLESS DRI 9800 ABOITE CENTER RD & ABOITE LAK
13F148002 17:02:21 25 PD ACCIDENT 29900 I 69 NB
13F147987 17:02:38 26PP PINNED 3700 MAUMEE AVE
13F147988 17:03:13 40A AUDIBLE 1100 COLISEUM BLVD N
13F147989 17:04:55 108 FOLLOWUP 6600 ANTHONY BLVD S
13F147990 17:07:55 129 1600 VENTURA LN
13F148009 17:08:18 108 FOLLOWUP 5900 ST JOE RD
13F147992 17:08:31 62 PARTY ARMED 6600 STATE BLVD E
13F147991 17:08:51 51 THEFT 1100 GOSHEN AVE
13F147997 17:11:37 46,96 00 MAIN ST E
13F147993 17:12:22 51 THEFT 300 WASHINGTON BLVD E
13F148001 17:18:48 63 CONTACT 6000 BRANDY CHASE CV
13F147996 17:19:05 911 HANG UP 1800 BAYER AVE
13F147999 17:20:45 18 WORK TRAFFIC 5300 BUELL DR
13F147995 17:21:13 33,34 600 PAULDING RD E & HANNA ST S
13F148000 17:23:46 25 PD ACCIDENT 4000 WASHINGTON BLVD E & COLISEUM
13F148003 17:35:26 25 PD ACCIDENT 9200 ILLINOIS RD & TIMBERLAKE TRL
13F148005 17:36:23 36 OCCUPIED VEH 1300 HILLEGAS RD S & ILLINOIS RD
13F148004 17:37:13 80 CIVIL INVEST 9000 LA BELLE PL
13F148008 17:40:15 101 OPEN DOOR 3000 HANNA ST S
13F148007 17:40:43 113 SHOTS FIRED 400 HIGH ST
13F148006 17:40:51 51 THEFT 6500 HAZELETT RD
13F148029 17:49:20 22RC RECOVERY 5900 FAIRFIELD AVE
13F148010 17:49:40 14S SERVING WAR 1200 WASHINGTON BLVD W
13F148013 17:50:17 911 HANG UP 4300 ANTHONY BLVD S
13F148011 17:50:34 80 CIVIL INVEST 00 MAIN ST E
13F148012 17:51:08 16,97 3300 PAULDING RD E
13F148014 17:52:46 911 HANG UP 3500 WASHINGTON CENTER RD W
13F148016 17:53:56 911 HANG UP 4600 MERCER CT
13F148015 17:54:17 3300 CLINTON ST N
13F148017 17:59:41 46 DOMESTIC 10200 SHELTER FIELD RUN
13F148018 18:01:28 911 HANG UP 300 WAYNE ST E
13F148019 18:02:10 51IP 6300 STATE BLVD E
13F148020 18:08:24 911 HANG UP 4900 SALEM LN
13F148022 18:09:26 911 HANG UP 3000 HOLTON AVE
13F148026 18:11:35 27 RECKLESS DRI 10300 COLDWATER RD & DUPONT RD E
13F148023 18:13:22 911 HANG UP 4800 DEVONSHIRE DR
13F148021 18:13:43 38 LOST/STOLEN 400 MASTERSON AVE W
13F148024 18:14:11 22RN RUNAWAY 1700 LOWER HUNTINGTON RD
13F148056 18:14:41 102,TX THREATS 1800 SHAKESPEARE BLVD
13F148025 18:16:42 48,36 500 SUPERIOR ST W
13F148027 18:19:56 51 THEFT 2300 INDIAN VILLAGE BLVD
13F148028 18:22:04 28 DUI 7900 STELLHORN RD
13F148034 18:26:32 911 HANG UP 500 EDGEKNOLL LN
13F148030 18:27:00 911 HANG UP 2500 DREXEL AVE
13F148031 18:30:52 43 DISTURBANCE 2700 TILLMAN RD E
13F148032 18:31:04 23,35 VAND VEH 2900 GAY ST
13F148061 18:31:07 22I JUV INVEST 2500 WINCH ST
13F148033 18:32:23 63Z ZACH CHECK 6400 HARRISON ST S
13F148062 18:39:02 11C CAGE CAR 7500 ANTHONY BLVD S
13F148036 18:39:20 911 HANG UP 4600 FAIRLAWN PASS
13F148054 18:39:20 96 BATTERY 1400 WILDWOOD AVE W
13F148035 18:40:11 70 FIRE 5300 BUELL DR
13F148040 18:43:43 22RN RUNAWAY 6500 ST JOE RD
13F148037 18:44:49 44LM 2000 ARDMORE AVE
13F148038 18:44:58 25 PD ACCIDENT 7300 ANTHONY BLVD S
13F148039 18:46:14 66V MENTAL VIOL 3700 ROBINWOOD DR
13F148041 18:51:01 46 DOMESTIC 2300 JOHN ST
13F148044 19:01:55 911 HANG UP 7300 HICKORY CREEK DR
13F148043 19:03:16 22I JUV INVEST 1800 SINCLAIR ST
13F148042 19:03:22 51 THEFT 4600 HEATHERWIND DR
13F148045 19:05:03 48,36 800 LEY RD & LIMA RD
13F148046 19:06:07 96IP 1900 FOX POINT TRL
13F148047 19:07:41 25 PD ACCIDENT 1700 RUDISILL BLVD E & ANTHONY BLV
13F148051 19:21:11 47 REMOVE ITEMS 1500 FRANKLIN AVE
13F148048 19:22:16 62 PARTY ARMED 2500 ST LOUIS AVE
13F148049 19:22:26 43 DISTURBANCE 200 DEWALD ST E
13F148050 19:26:44 46,96 1400 TAYLOR ST
13F148052 19:34:07 22I JUV INVEST 2200 RANDALLIA DR
13F148053 19:40:55 22RC RECOVERY 1700 LOWER HUNTINGTON RD
13F148082 19:41:16 50 BURGLARY 1300 WAYNE ST E
13F148055 19:45:14 16V PICKUP VID 00 MAIN ST E
13F148057 20:01:23 48 SUSPICIOUS 1200 COLLEGE ST & JONES ST
13F148058 20:01:54 30 TRAFFIC STOP 300 COLISEUM BLVD E
13F148059 20:02:55 911 HANG UP 2300 HILLEGAS RD
13F148060 20:02:56 96 BATTERY 8700 SHEARWATER PASS
13F148063 20:11:02 22I JUV INVEST 1900 HILLSIDE AVE
13F148066 20:11:48 96 BATTERY 3300 OLIVER ST
13F148064 20:14:45 46 DOMESTIC 2900 DREXEL AVE
13F148065 20:15:56 27 RECKLESS DRI 32000 I 69 SB
13F148076 20:22:39 44LM 6200 SALISBURY DR
13F148067 20:30:38 51 THEFT 900 LIBRARY PLAZA
13F148068 20:31:48 911 HANG UP 4300 ANTHONY BLVD S
13F148084 20:33:16 22RN RUNAWAY 1200 LILLIE ST
13F148069 20:34:00 33 DISABLED VEH 31100 I 69 SB
13F148070 20:35:00 63Z ZACH CHECK 2100 MORRIS ST
13F148071 20:37:43 46,96 400 FAIRWICK LN
13F148072 20:38:35 51,35 5700 JEFFERSON BLVD W
13F148073 20:46:12 96JO 2000 SKYHAWK DR
13F148075 20:46:47 24 MISSING PERS 400 COLERICK ST
13F148074 20:54:38 80 CIVIL INVEST 2600 CONGRESSIONAL PKWY
13F148077 20:59:22 39 STOLEN VEHIC 6300 CALHOUN ST S
13F148080 21:02:16 102 THREATS 1100 SUMMIT ST
13F148078 21:08:46 46,96 1000 HAMILTON AVE
13F148088 21:11:54 44LM 4600 WEISSER PARK AVE
13F148079 21:12:03 63Z ZACH CHECK 5100 MOUNT VERNON PARK DR
13F148081 21:17:21 25 PD ACCIDENT 2200 SPY RUN AVE & STATE BLVD E
13F148083 21:18:48 25 PD ACCIDENT 1400 NORTHLAND BLVD
13F148085 21:19:25 63 CONTACT 600 DEWALD ST W
13F148087 21:23:27 25 PD ACCIDENT 1400 CLINTON ST N & FOURTH ST E
13F148086 21:25:13 51 THEFT 3400 HOAGLAND AVE
13F148089 21:28:26 911 HANG UP 1000 RIDGEWOOD DR
13F148090 21:36:10 101 OPEN DOOR 6200 SUGAR TREE PL
13F148092 21:38:42 48 SUSPICIOUS 3500 BASS RD
13F148095 21:39:40 63 CONTACT 1600 TAYLOR ST
13F148091 21:40:13 48,36 10300 ABOITE CENTER RD
13F148093 21:45:46 33,34 4700 CLINTON ST N & PARNELL AVE
13F148094 21:54:59 911 HANG UP 1700 THIRD ST
13F148096 22:05:51 66V MENTAL VIOL 3700 ROBINWOOD DR
13F148097 22:23:32 129 9400 BLUE MOUND DR
13F148098 22:23:37 43 DISTURBANCE 2700 WASHINGTON CENTER RD W
13F148100 22:25:25 103 UNWANTED 1600 WASHINGTON BLVD E
13F148113 22:25:52 43 DISTURBANCE 1600 WELLS ST
13F148099 22:26:16 59 CUTTING/STAB 3000 WASHINGTON CENTER RD W
13F148112 22:26:18 46,96 1600 FRANKLIN AVE
13F148101 22:26:25 53 ARMED ROB 7500 ANTHONY BLVD S
13F148104 22:26:38 46,96 5900 BUNT DR
13F148102 22:26:47 48 SUSPICIOUS 400 FAIRWICK LN
13F148103 22:29:03 65A SUICIDE ATT 1600 SINCLAIR ST
13F148133 22:29:08 24 MISSING PERS 600 OAKFIELD DR
13F148105 22:30:16 911 HANG UP 2700 STATE BLVD E
13F148128 22:30:28 102 THREATS 5400 RIVER RUN TRL
13F148107 22:30:53 25HS HIT SKIP 1100 OAKDALE DR W
13F148106 22:34:17 30 TRAFFIC STOP 3100 LUDWIG RD W & HILLSIDE OAKS D
13F148108 22:34:28 40A AUDIBLE 2400 BROADWAY
13F148110 22:35:25 61 RAPE 2200 FILLMORE ST
13F148109 22:35:34 46,62 1100 MCCULLOCH ST
13F148111 22:43:30 46 DOMESTIC 5000 COVENTRY PKWY
13F148114 22:47:16 48,36 1200 STATE BLVD E
13F148115 22:52:34 33,34 4700 ST JOE CENTER RD & REED RD
13F148118 22:55:30 48,36 9500 WATERGROVE TRL
13F148117 22:58:12 22RN RUNAWAY 800 DREXEL AVE
13F148116 22:58:52 46 DOMESTIC 900 MCKINNIE AVE
13F148119 23:04:00 63 CONTACT 3600 ROBINWOOD DR
13F148121 23:06:23 42 INTOX PERSON 2600 STATE BLVD E
13F148126 23:09:13 40A AUDIBLE 12700 CORBIN RD
13F148120 23:11:06 48 SUSPICIOUS 2300 OXFORD ST & QUEEN ST
13F148122 23:12:15 43 DISTURBANCE 100 DEWALD ST E
13F148123 23:14:49 43 DISTURBANCE 900 LIBRARY PLAZA
13F148124 23:15:00 96JO 4500 MAPLECREST RD
13F148125 23:24:20 37 PARKING VIOL 600 STADIUM DR
13F148127 23:31:38 911 HANG UP 2000 CARTERTON DR
13F148135 23:34:04 1 MEET 800 TENNESSEE AVE
13F148129 23:39:46 40A AUDIBLE 1100 DUPONT RD E
13F148131 23:40:33 46 DOMESTIC 2900 WHITE OAK AVE
13F148132 23:41:05 911 HANG UP 800 GLEN EAGLE LN
13F148130 23:42:00 66 72 HOUR 2200 RANDALLIA DR
13F148134 23:49:50 44LM 3500 LILLIE ST
13F148136 23:53:59 58 SHOOTING 3400 DIPLOMAT DR
13F148142 23:55:57 24 MISSING PERS 2500 ELLEN AVE
Amber Alert

All-America City